FDX671 RCTP-RPLC

Flight info

Callsign FDX671
Flight time 1h 45m
Altitude 38000
Route TINHO1A TINHO B591 TACLE Q11 POTIB DCT SANRO W4 MALIB MALIB5R
Aircraft B77W/H-SDE1E2E3FGHIJ2J3J4J5M1RWXY/LB1D1

Departure

Time 2026-04-30 21:12
Airport Taiwan Taoyuan International Airport (RCTP)

Arrival

Time 2026-04-30 22:57
Airport Clark International Airport / Clark Air Base (RPLC)
Time Latitude Longitude Altitude Speed Heading
2026-04-30 21:11 25.16227 121.34232 4737 ft 240 kts 51°
2026-04-30 21:12 25.17280 121.35682 5022 ft 248 kts 49°
2026-04-30 21:12 25.18457 121.37196 5302 ft 267 kts 47°
2026-04-30 21:12 25.19693 121.38715 5599 ft 266 kts 46°
2026-04-30 21:12 25.20969 121.40234 5909 ft 273 kts 46°
2026-04-30 21:13 25.22271 121.41755 6262 ft 270 kts 45°
2026-04-30 21:13 25.23544 121.43230 7029 ft 268 kts 45°
2026-04-30 21:13 25.24871 121.44755 7666 ft 279 kts 44°
2026-04-30 21:13 25.26153 121.46375 8273 ft 282 kts 54°
2026-04-30 21:14 25.26817 121.48384 8874 ft 289 kts 82°
2026-04-30 21:14 25.26526 121.50583 9502 ft 296 kts 111°
2026-04-30 21:14 25.25311 121.52416 10132 ft 301 kts 140°
2026-04-30 21:14 25.23519 121.53611 10793 ft 303 kts 156°
2026-04-30 21:15 25.21542 121.54471 11429 ft 307 kts 161°
2026-04-30 21:15 25.19504 121.55232 12058 ft 310 kts 163°
2026-04-30 21:15 25.17432 121.56012 12694 ft 323 kts 162°
2026-04-30 21:15 25.15245 121.56900 13345 ft 351 kts 160°
2026-04-30 21:16 25.12864 121.57961 14004 ft 387 kts 159°
2026-04-30 21:16 25.10334 121.59184 14648 ft 411 kts 157°
2026-04-30 21:16 25.07730 121.60525 15278 ft 412 kts 156°
2026-04-30 21:16 25.05169 121.61906 15899 ft 410 kts 155°
2026-04-30 21:17 25.02608 121.63330 16527 ft 415 kts 154°
2026-04-30 21:17 25.00025 121.64797 17156 ft 419 kts 154°
2026-04-30 21:17 24.97427 121.66292 17784 ft 423 kts 154°
2026-04-30 21:17 24.94819 121.67808 18410 ft 426 kts 154°
2026-04-30 21:18 24.92182 121.69349 19039 ft 430 kts 154°
2026-04-30 21:18 24.89565 121.70886 19658 ft 434 kts 154°
2026-04-30 21:18 24.86866 121.72474 20292 ft 437 kts 154°
2026-04-30 21:18 24.84208 121.74041 20911 ft 441 kts 154°
2026-04-30 21:19 24.81489 121.75644 21539 ft 445 kts 154°
2026-04-30 21:19 24.78755 121.77256 22165 ft 449 kts 154°
2026-04-30 21:19 24.75993 121.78885 22792 ft 453 kts 154°
2026-04-30 21:19 24.73206 121.80529 23419 ft 457 kts 154°
2026-04-30 21:20 24.70389 121.82190 24048 ft 461 kts 154°
2026-04-30 21:20 24.67562 121.83856 24673 ft 465 kts 154°
2026-04-30 21:20 24.64726 121.85527 25294 ft 469 kts 154°
2026-04-30 21:20 24.61832 121.87230 25921 ft 474 kts 154°
2026-04-30 21:21 24.58909 121.88950 26549 ft 479 kts 154°
2026-04-30 21:21 24.55955 121.90688 27176 ft 484 kts 154°
2026-04-30 21:21 24.49957 121.94214 28432 ft 493 kts 154°
2026-04-30 21:22 24.46924 121.95996 29057 ft 497 kts 154°
2026-04-30 21:22 24.37721 122.01371 30933 ft 505 kts 156°
2026-04-30 21:23 24.34447 122.02596 31542 ft 504 kts 172°
2026-04-30 21:23 24.30957 122.02816 32178 ft 503 kts 186°
2026-04-30 21:23 24.24076 122.01304 33455 ft 509 kts 200°
2026-04-30 21:24 24.20731 122.00002 34089 ft 513 kts 204°
2026-04-30 21:24 24.17410 121.98514 34721 ft 518 kts 205°
2026-04-30 21:24 24.14095 121.96929 35350 ft 523 kts 206°
2026-04-30 21:24 24.10759 121.95310 35976 ft 527 kts 206°
2026-04-30 21:25 24.03878 121.92351 37234 ft 534 kts 201°
2026-04-30 21:25 24.00397 121.91089 37846 ft 537 kts 200°
2026-04-30 21:25 23.96790 121.89882 38035 ft 548 kts 199°
2026-04-30 21:26 23.89301 121.87584 38007 ft 569 kts 197°
2026-04-30 21:27 23.77728 121.84135 37997 ft 577 kts 198°
2026-04-30 21:27 23.73873 121.82928 37954 ft 565 kts 198°
2026-04-30 21:27 23.70266 121.81785 37911 ft 526 kts 199°
2026-04-30 21:28 23.63184 121.79467 38019 ft 544 kts 199°
2026-04-30 21:28 23.59550 121.78265 38005 ft 549 kts 199°
2026-04-30 21:28 23.52518 121.75972 37877 ft 487 kts 199°
2026-04-30 21:29 23.49374 121.74967 37935 ft 455 kts 199°
2026-04-30 21:29 23.40909 121.72251 37982 ft 401 kts 200°
2026-04-30 21:30 23.35529 121.70511 38082 ft 419 kts 200°
2026-04-30 21:31 23.26516 121.67563 38010 ft 483 kts 199°
2026-04-30 21:31 23.19882 121.65412 38003 ft 516 kts 199°
2026-04-30 21:32 23.12878 121.63162 37999 ft 529 kts 199°
2026-04-30 21:32 23.09337 121.62030 37997 ft 532 kts 199°
2026-04-30 21:32 23.02227 121.59764 37996 ft 533 kts 199°
2026-04-30 21:33 22.91630 121.56386 37995 ft 530 kts 199°
2026-04-30 21:34 22.84565 121.54131 37996 ft 529 kts 199°
2026-04-30 21:34 22.73976 121.50751 37996 ft 529 kts 199°
2026-04-30 21:35 22.66958 121.48384 37996 ft 528 kts 201°
2026-04-30 21:35 22.60076 121.45638 37996 ft 527 kts 204°
2026-04-30 21:36 22.53319 121.42721 37996 ft 527 kts 205°
2026-04-30 21:37 22.39777 121.36678 37996 ft 526 kts 205°
2026-04-30 21:37 22.33015 121.33656 37996 ft 526 kts 205°
2026-04-30 21:38 22.26286 121.30665 37996 ft 526 kts 205°
2026-04-30 21:38 22.19510 121.27672 37996 ft 526 kts 205°
2026-04-30 21:39 22.12719 121.24687 37996 ft 526 kts 205°
2026-04-30 21:39 22.05940 121.21719 37996 ft 526 kts 204°
2026-04-30 21:40 21.99191 121.18774 37996 ft 526 kts 204°
2026-04-30 21:40 21.92396 121.15814 37996 ft 526 kts 204°
2026-04-30 21:41 21.85608 121.12861 37996 ft 526 kts 204°
2026-04-30 21:41 21.78815 121.09908 37996 ft 526 kts 204°
2026-04-30 21:42 21.72066 121.06976 37996 ft 526 kts 204°
2026-04-30 21:42 21.65272 121.04028 37996 ft 526 kts 204°
2026-04-30 21:43 21.58480 121.01083 37996 ft 526 kts 204°
2026-04-30 21:43 21.51683 120.98139 37996 ft 526 kts 204°
2026-04-30 21:44 21.44889 120.95198 37996 ft 526 kts 204°
2026-04-30 21:44 21.38141 120.92280 37996 ft 526 kts 204°
2026-04-30 21:45 21.31351 120.89347 37996 ft 526 kts 204°
2026-04-30 21:45 21.24554 120.86413 37996 ft 527 kts 204°
2026-04-30 21:46 21.17753 120.83481 37996 ft 527 kts 204°
2026-04-30 21:46 21.11002 120.80572 37996 ft 527 kts 204°
2026-04-30 21:47 21.04204 120.77645 37996 ft 526 kts 204°
2026-04-30 21:47 20.97178 120.75393 37998 ft 530 kts 194°
2026-04-30 21:48 20.89864 120.74175 37998 ft 533 kts 189°
2026-04-30 21:48 20.82484 120.73398 37996 ft 534 kts 187°
2026-04-30 21:49 20.75120 120.72783 37996 ft 534 kts 187°
2026-04-30 21:49 20.67707 120.72206 37996 ft 534 kts 187°
2026-04-30 21:50 20.60302 120.71623 37996 ft 534 kts 187°
2026-04-30 21:50 20.52883 120.71019 37996 ft 534 kts 187°
2026-04-30 21:51 20.45484 120.70393 37996 ft 534 kts 187°
2026-04-30 21:51 20.38133 120.69752 37996 ft 534 kts 187°
2026-04-30 21:52 20.30737 120.69092 37996 ft 534 kts 187°
2026-04-30 21:52 20.23327 120.68418 37996 ft 534 kts 187°
2026-04-30 21:53 20.15932 120.67737 37996 ft 534 kts 187°
2026-04-30 21:53 20.08536 120.67050 37996 ft 534 kts 187°
2026-04-30 21:54 20.01195 120.66364 37996 ft 534 kts 187°
2026-04-30 21:54 19.93796 120.65670 37996 ft 534 kts 187°
2026-04-30 21:55 19.86400 120.64974 37996 ft 533 kts 187°
2026-04-30 21:55 19.79007 120.64278 37996 ft 534 kts 187°
2026-04-30 21:56 19.71663 120.63585 37996 ft 534 kts 188°
2026-04-30 21:56 19.64263 120.62887 37996 ft 533 kts 188°
2026-04-30 21:57 19.56874 120.62190 37996 ft 533 kts 188°
2026-04-30 21:57 19.49473 120.61492 37996 ft 533 kts 188°
2026-04-30 21:58 19.42131 120.60801 37996 ft 534 kts 188°
2026-04-30 21:58 19.34734 120.60104 37996 ft 534 kts 188°
2026-04-30 21:59 19.27341 120.59408 37996 ft 534 kts 188°
2026-04-30 22:00 19.16247 120.58365 37996 ft 534 kts 188°
2026-04-30 22:00 19.05205 120.57328 37996 ft 534 kts 187°
2026-04-30 22:01 18.97806 120.56634 37996 ft 534 kts 187°
2026-04-30 22:01 18.90411 120.55941 37996 ft 534 kts 187°
2026-04-30 22:02 18.83017 120.55249 37996 ft 534 kts 187°
2026-04-30 22:02 18.75665 120.54561 37996 ft 534 kts 187°
2026-04-30 22:03 18.68274 120.53870 37996 ft 534 kts 187°
2026-04-30 22:03 18.60876 120.53179 37996 ft 534 kts 187°
2026-04-30 22:04 18.53475 120.52488 37996 ft 534 kts 187°
2026-04-30 22:05 18.42442 120.51459 37996 ft 534 kts 187°
2026-04-30 22:05 18.35041 120.50770 37996 ft 534 kts 187°
2026-04-30 22:06 18.27648 120.50082 37996 ft 534 kts 187°
2026-04-30 22:06 18.16556 120.49051 37996 ft 534 kts 187°
2026-04-30 22:07 18.09208 120.48369 37996 ft 534 kts 187°
2026-04-30 22:07 18.01812 120.47683 37996 ft 534 kts 187°
2026-04-30 22:08 17.94411 120.46997 37996 ft 534 kts 187°
2026-04-30 22:08 17.87020 120.46313 37996 ft 534 kts 187°
2026-04-30 22:09 17.79668 120.45632 37996 ft 534 kts 187°
2026-04-30 22:09 17.72276 120.44949 37996 ft 534 kts 187°
2026-04-30 22:10 17.64880 120.44266 37996 ft 534 kts 187°
2026-04-30 22:10 17.57489 120.43583 37996 ft 534 kts 187°
2026-04-30 22:11 17.46384 120.42559 37996 ft 534 kts 187°
2026-04-30 22:12 17.39041 120.41883 37996 ft 534 kts 187°
2026-04-30 22:12 17.31648 120.41202 37996 ft 534 kts 187°
2026-04-30 22:13 17.24250 120.40522 37996 ft 534 kts 187°
2026-04-30 22:13 17.16855 120.39842 37996 ft 534 kts 187°
2026-04-30 22:14 17.09504 120.39167 37996 ft 534 kts 187°
2026-04-30 22:14 17.02111 120.38489 37996 ft 534 kts 187°
2026-04-30 22:15 16.94710 120.37810 37996 ft 534 kts 187°
2026-04-30 22:15 16.87324 120.37133 37996 ft 534 kts 187°
2026-04-30 22:16 16.79966 120.36459 37996 ft 534 kts 187°
2026-04-30 22:17 16.65098 120.36433 37998 ft 538 kts 177°
2026-04-30 22:17 16.53925 120.37807 37996 ft 539 kts 175°
2026-04-30 22:18 16.42831 120.39426 37996 ft 539 kts 174°
2026-04-30 22:19 16.31688 120.41055 37996 ft 539 kts 175°
2026-04-30 22:20 16.20537 120.42632 37996 ft 539 kts 175°
2026-04-30 22:20 16.09432 120.44153 37996 ft 539 kts 175°
2026-04-30 22:21 16.01997 120.45153 37996 ft 539 kts 175°
2026-04-30 22:21 15.94557 120.46143 37996 ft 539 kts 175°
2026-04-30 22:22 15.87112 120.47126 37996 ft 539 kts 175°
2026-04-30 22:22 15.79723 120.48098 37996 ft 539 kts 175°
2026-04-30 22:23 15.72288 120.49074 37996 ft 539 kts 175°
2026-04-30 22:23 15.64855 120.49631 37983 ft 532 kts 189°
2026-04-30 22:24 15.61304 120.48664 37870 ft 527 kts 206°
2026-04-30 22:24 15.58218 120.46673 37717 ft 521 kts 223°
2026-04-30 22:24 15.55878 120.43852 37555 ft 515 kts 240°
2026-04-30 22:24 15.54484 120.40463 37392 ft 511 kts 257°
2026-04-30 22:25 15.54158 120.36827 37229 ft 508 kts 274°
2026-04-30 22:25 15.54909 120.33301 37067 ft 508 kts 290°
2026-04-30 22:25 15.56681 120.30152 36903 ft 510 kts 308°
2026-04-30 22:25 15.59320 120.27693 36739 ft 513 kts 325°
2026-04-30 22:26 15.66113 120.25421 36426 ft 520 kts 350°
2026-04-30 22:26 15.69729 120.25144 36091 ft 525 kts 355°
2026-04-30 22:26 15.73395 120.25132 35445 ft 529 kts 358°
2026-04-30 22:27 15.77064 120.25289 34756 ft 526 kts
2026-04-30 22:27 15.80631 120.25812 34056 ft 525 kts 13°
2026-04-30 22:27 15.86611 120.29700 32508 ft 483 kts 49°
2026-04-30 22:28 15.88847 120.35821 31048 ft 446 kts 90°
2026-04-30 22:28 15.88365 120.38948 30344 ft 436 kts 111°
2026-04-30 22:29 15.82488 120.46194 28377 ft 470 kts 149°
2026-04-30 22:29 15.79694 120.47755 27549 ft 443 kts 159°
2026-04-30 22:30 15.68565 120.49817 24510 ft 386 kts 192°
2026-04-30 22:31 15.63248 120.44831 22252 ft 352 kts 261°
2026-04-30 22:32 15.66475 120.38045 20048 ft 375 kts 328°
2026-04-30 22:32 15.71244 120.36690 18523 ft 354 kts 351°
2026-04-30 22:33 15.78491 120.36346 16108 ft 343 kts 356°
2026-04-30 22:33 15.83071 120.36302 14055 ft 305 kts 357°
2026-04-30 22:34 15.88244 120.38487 10972 ft 278 kts 63°
2026-04-30 22:35 15.87852 120.42278 10280 ft 281 kts 121°
2026-04-30 22:36 15.81921 120.47008 8335 ft 264 kts 158°
2026-04-30 22:36 15.80218 120.47619 7841 ft 261 kts 163°
2026-04-30 22:37 15.75091 120.48704 7126 ft 251 kts 172°
2026-04-30 22:37 15.73362 120.48951 6958 ft 248 kts 173°
2026-04-30 22:37 15.69949 120.49392 6611 ft 247 kts 173°
2026-04-30 22:38 15.66542 120.49829 6264 ft 246 kts 173°
2026-04-30 22:38 15.63190 120.50262 6024 ft 243 kts 173°
2026-04-30 22:39 15.61511 120.50480 6005 ft 243 kts 173°
2026-04-30 22:39 15.56484 120.51133 6000 ft 243 kts 173°
2026-04-30 22:40 15.51448 120.51787 6000 ft 243 kts 173°
2026-04-30 22:41 15.46439 120.52439 6000 ft 243 kts 173°
2026-04-30 22:41 15.43081 120.52879 6000 ft 243 kts 174°
2026-04-30 22:42 15.36368 120.53750 6000 ft 243 kts 173°
2026-04-30 22:43 15.32782 120.54220 6012 ft 273 kts 173°
2026-04-30 22:43 15.29000 120.54715 6004 ft 280 kts 173°
2026-04-30 22:44 15.25106 120.55225 6002 ft 284 kts 173°
2026-04-30 22:45 15.17450 120.57208 6002 ft 287 kts 155°
2026-04-30 22:45 15.14008 120.59211 6012 ft 284 kts 148°
2026-04-30 22:46 15.10694 120.61447 5793 ft 287 kts 146°
2026-04-30 22:47 15.04410 120.62406 5136 ft 207 kts 193°
2026-04-30 22:47 15.01713 120.61561 4999 ft 199 kts 199°
2026-04-30 22:48 14.99110 120.60726 4999 ft 196 kts 198°
2026-04-30 22:49 14.95285 120.59280 5000 ft 194 kts 205°
2026-04-30 22:49 14.91476 120.57529 4969 ft 201 kts 205°
2026-04-30 22:50 14.88973 120.53630 4383 ft 203 kts 303°
2026-04-30 22:51 14.91687 120.52813 4076 ft 214 kts 360°
2026-04-30 22:51 14.94057 120.53041 3612 ft 196 kts
2026-04-30 22:52 14.95340 120.53211 3326 ft 182 kts
2026-04-30 22:52 14.97756 120.53539 3035 ft 170 kts
2026-04-30 22:53 15.00014 120.53088 2972 ft 167 kts 337°
2026-04-30 22:53 15.01975 120.51842 3049 ft 163 kts 331°
2026-04-30 22:53 15.03020 120.51449 3181 ft 162 kts 344°
2026-04-30 22:54 15.05310 120.51919 3201 ft 174 kts 17°
2026-04-30 22:55 15.08616 120.52959 1790 ft 159 kts 14°
2026-04-30 22:55 15.10775 120.53419 1561 ft 162 kts 12°
2026-04-30 22:56 15.12928 120.54060 1217 ft 159 kts 18°
2026-04-30 22:56 15.16027 120.55254 776 ft 152 kts 19°
2026-04-30 22:57 15.17918 120.55981 526 ft 136 kts 21°
2026-04-30 22:57 15.19154 120.56464 501 ft 48 kts 21°
2026-04-30 22:58 15.19350 120.56536 501 ft 1 kts 19°
2026-04-30 22:59 15.19574 120.56622 501 ft 17 kts 355°
2026-04-30 22:59 15.19717 120.56345 501 ft 19 kts 291°